Location: Cardiff
(53.7833°N, 113.6000°W)
Time: 06:06:29
(UTC+00:00)

NOAA 15 - Pass Details

Date: 07 December 2023
Orbit: 797 x 810 km, 98.6° (Epoch: 04 March)

Event Time Altitude Azimuth Distance (km) Brightness Sun altitude
Rises 00:10:13 0° 106° (ESE) 3,324 7.4 -7.7°
Reaches altitude 10° 00:13:22 10° 86° (E) 2,395 6.5 -8.1°
Maximum altitude 00:16:33 16° 49° (NE) 1,980 6.0 -8.5°
Drops below altitude 10° 00:19:44 10° 12° (NNE) 2,398 6.7 -8.9°
Sets 00:22:54 0° 352° (N) 3,330 7.6 -9.3°
